Regional Weather Roundup
Issued by NWS

Home | Current Version | Previous Version | Graphics & Text | Print | Product List | Glossary On
Versions: 1 2 3 4 5 6 7 8 9 10 11 12 13 14 15 16 17 18 19 20 21 22 23 24 25 26 27 28 29 30 31 32 33 34 35 36 37 38 39 40 41 42 43 44 45 46 47 48 49 50
000
ASUS45 KCYS 080410
RWRWY

WYOMING REGIONAL WEATHER ROUNDUP
NATIONAL WEATHER SERVICE CHEYENNE WY
900 PM MST WED DEC 07 2016

NOTE:  "FAIR" INDICATES FEW OR NO CLOUDS BELOW 12,000 FEET
WITH NO SIGNIFICANT WEATHER AND/OR OBSTRUCTIONS TO VISIBILITY.

WYZ001-080500-
YELLOWSTONE NATIONAL PARK

CITY           SKY/WX    TMP DP  RH WIND       PRES   REMARKS
LK YELLOWSTONE   N/A    -15 -19  82 NW3       30.17R
W YELLOWSTONE  NOT AVBL

$$
WYZ002>013-054>058-071-098>099-080500-
NORTHERN WYOMING

CITY           SKY/WX    TMP DP  RH WIND       PRES   REMARKS
JACKSON        FAIR     -13 -15  92 N10       30.25R WCI -32
CODY           FAIR      -8 -13  78 S5        30.38R WCI -19
GREYBULL       FAIR       2  -4  76 SE3       30.48R
WORLAND        FAIR      -2  -6  83 E5        30.44S WCI -12
SHERIDAN       FAIR      -7 -13  75 CALM      30.48R
BUFFALO        FAIR      -3 -12  65 W7        30.39R WCI -16
GILLETTE       FAIR      -6 -10  83 W13       30.43R WCI -25
HULETT         FAIR      -4  -8  84 MISG      30.44R
NEWCASTLE      FAIR      -6  -9  84 NW7       30.44R WCI -20

$$
WYZ014>020-022>026-101>103-080500-
CENTRAL WYOMING

CITY           SKY/WX    TMP DP  RH WIND       PRES   REMARKS
BIG PINEY      FAIR      -8 -12  83 NE6       30.22R WCI -21
PINEDALE       FAIR     -15 -20  76 NW7       30.22S WCI -31
DUBOIS         MOCLDY    -6 -11  77 W12       30.17S WCI -24
LANDER         CLOUDY     4  -2  76 CALM      30.31R
RIVERTON       FAIR       0  -5  79 E5        30.33R WCI -10
CASPER         FAIR     -16 -19  87 N8        30.36R WCI -34
DOUGLAS        FAIR      -8 -16  67 NW7       30.40R WCI -23

$$
WYZ021-027>030-104>119-080500-
SOUTHERN WYOMING

CITY           SKY/WX    TMP DP  RH WIND       PRES   REMARKS
EVANSTON       FAIR       4  -3  73 E5        30.18F WCI  -5
KEMMERER         N/A      0  -6  78 NW8       30.20R WCI -15
FORT BRIDGER   FAIR       9   1  70 CALM      30.24R
ROCK SPRINGS   FAIR       4  -4  69 CALM      30.23R
DIXON          FAIR      -1  -8  74 E3        30.30R
RAWLINS        FAIR     -12 -18  74 CALM      30.23S
SARATOGA       FAIR      -8 -11  84 CALM      30.24R
LARAMIE        FAIR     -16 -20  82 SW7       30.19R WCI -32
CHEYENNE       FAIR     -11 -16  78 W3        30.29R
TORRINGTON     FAIR       1  -7  68 NW10      30.43S WCI -15
PINE BLUFFS    FAIR     -11 -17  77 MISG      30.38R

$$



USA.gov is the U.S. government's official web portal to all federal, state and local government web resources and services.